Regional Weather Roundup
Issued by NWS

Home | Current Version | Previous Version | Text Only | Print | Product List | Glossary Off
Versions: 1 2 3 4 5 6 7 8 9 10 11 12 13 14 15 16 17 18 19 20 21 22 23 24 25 26 27 28 29 30 31 32 33 34 35 36 37 38 39 40 41 42 43 44 45 46 47 48 49 50

000
ASUS43 KFSD 310810
RWRSD

WEATHER ROUNDUP FOR SOUTH DAKOTA
NATIONAL WEATHER SERVICE SIOUX FALLS SD
200 AM CST SAT JAN 31 2015

NOTE: "FAIR" INDICATES FEW OR NO CLOUDS BELOW 12,000 FEET WITH NO
SIGNIFICANT WEATHER AND/OR OBSTRUCTIONS TO VISIBILITY.


SDZ001>005-009-010-012>017-310900-
NORTHWEST AND NORTH CENTRAL SOUTH DAKOTA

CITY           SKY/WX    TMP DP  RH WIND       PRES   REMARKS
BUFFALO          N/A     28  24  85 E7        30.01F WCI  21
FAITH            N/A     24  20  84 NE12      30.09F WCI  13
MOBRIDGE       CLOUDY    29  26  89 NE10      30.13S FOG     WCI  20
$$

SDZ012>016-024>037-041>051-057-063-072>074-310900-
SOUTHWEST AND SOUTH CENTRAL SOUTH DAKOTA

CITY           SKY/WX    TMP DP  RH WIND       PRES   REMARKS
RAPID CTY ARPT CLOUDY    29  22  75 N8        30.07F WCI  21
PIERRE         MOCLDY    28  23  81 N10       30.10F WCI  19
CUSTER         CLOUDY    28  18  66 NE6       30.03F WCI  22
ELLSWORTH AFB  MOCLDY    27  22  79 N5        30.07F WCI  22
PHILIP         CLOUDY    24  20  84 W5        30.09F WCI  18
PINE RIDGE     CLOUDY    26  22  84 CALM      30.06F
SPEARFISH      FAIR      27  21  80 MISG      30.06F
WINNER         FAIR      28  22  78 W5        30.09F WCI  23
$$

SDZ004>011-016>023-039-040-310900-
NORTHEAST SOUTH DAKOTA

CITY           SKY/WX    TMP DP  RH WIND       PRES   REMARKS
ABERDEEN       CLOUDY    26  23  88 N13       30.18R WCI  15
WATERTOWN      CLEAR     23  20  88 N9        30.11R WCI  13
SISSETON         N/A     26  25  96 N16       30.17R WCI  14
$$

SDZ017-020-022-023-036>040-048>070-310900-
SOUTHEAST SOUTH DAKOTA

CITY           SKY/WX    TMP DP  RH WIND       PRES   REMARKS
SIOUX FALLS    PTCLDY    27  24  89 CALM      30.11S
HURON          CLEAR     25  22  88 N9        30.12S WCI  15
CHAMBERLAIN    MOCLDY    26  23  88 CALM      30.10F
MITCHELL       PTCLDY    25  23  92 NW7       30.11F WCI  17
YANKTON        FAIR      36  27  69 SW6       30.12F
$$

ABBREVIATIONS USED IN REMARKS
   TC - TEMPERATURE IN CELSIUS
  WCI - WIND CHILL INDEX
   HX - HEAT INDEX
  VSB - VISIBILITY




USA.gov is the U.S. government's official web portal to all federal, state and local government web resources and services.